Погода в Кодайканале

Индия     10°13′53″N   77°29′17″E
темп.,
°C
ветер,
м/с
пор.,
м/с
влажн.,
%
обл.,
%
осадки,
мм/ч
давл.,
гПа
погр.,
м
21 апреля, ср
ср2123:30+19ююз1184100 2.4 101411
02:30+19ююз118595 0.3 101216
05:30+18зюз2183100 0.8 101316
08:30+24ююв1161100 0.0 1015483
11:30+28в23437 0.1 10132003
14:30+29вюв343989 0.0 10102671
17:30+24ююв2359100 0.1 101170
20:30+21ю117237 0.3 101431
22 апреля, чт
чт2223:30+19ююз228675 0.9 101541
02:30+19зюз2283100 0.8 101331
05:30+19з118068 0.9 101311
08:30+25всв115984 0.0 1014579
11:30+28всв344253 0.0 10132023
14:30+30в333798 0.0 10102824
17:30+25ююв2255100 0.0 101069
20:30+22ю22675 0.1 101337
23 апреля, пт
пт2323:30+19юз228356 0.4 101429
02:30+19зюз228285 0.3 101233
05:30+19з21795 0.3 101314
08:30+25всв11568 0.0 1014641
11:30+29всв23386 0.0 10122192
14:30+30в333578 0.0 10092978
17:30+25ю1253100 0.0 100967
20:30+22юз126993 0.3 101349
24 апреля, сб
сб2423:30+20сз1182100 1.0 101417
02:30+19зюз2282100 0.1 101129
05:30+19зюз2280100 0.1 101221
08:30+24юв1062100 0.0 1013513
11:30+27всв2253100 0.5 10121360
14:30+28св1250100 1.1 10101715
17:30+25вюв2362100 1.9 1010202
20:30+21з007666 0.8 101311
25 апреля, вс
вс2523:30+20юз228693 1.3 101341
02:30+20юз228399 0.3 101226
05:30+19зюз2183100 0.5 101216
08:30+25вюв116235 0.3 1014594
11:30+30всв234125 0.3 10121861
14:30+30всв353699 0.0 10092707
17:30+27св234696 0.0 1009304
20:30+22з116597 0.1 101211